TimeMDT,TemperatureF,Dew PointF,Humidity,Sea Level PressureIn,VisibilityMPH,Wind Direction,Wind SpeedMPH,Gust SpeedMPH,PrecipitationIn,Events,Conditions,WindDirDegrees,DateUTC
12:53 AM,39.9,19.9,45,30.27,10.0,NE,5.8,-,N/A,,Partly Cloudy,40,2013-05-11 06:53:00
1:53 AM,37.9,18.0,45,30.27,10.0,NNE,5.8,-,N/A,,Partly Cloudy,30,2013-05-11 07:53:00
2:53 AM,37.0,18.0,46,30.27,10.0,North,3.5,-,N/A,,Overcast,10,2013-05-11 08:53:00
3:53 AM,33.1,19.0,56,30.31,10.0,West,4.6,-,N/A,,Partly Cloudy,260,2013-05-11 09:53:00
4:53 AM,36.0,19.9,52,30.31,10.0,Calm,Calm,-,N/A,,Overcast,0,2013-05-11 10:53:00
5:53 AM,36.0,21.9,57,30.34,10.0,West,3.5,-,N/A,,Overcast,280,2013-05-11 11:53:00
6:53 AM,37.0,25.0,62,30.34,10.0,Calm,Calm,-,N/A,,Overcast,0,2013-05-11 12:53:00
7:53 AM,41.0,21.0,45,30.34,10.0,West,4.6,-,N/A,,Overcast,270,2013-05-11 13:53:00
8:53 AM,46.0,21.0,37,30.33,10.0,Variable,3.5,-,N/A,,Mostly Cloudy,0,2013-05-11 14:53:00
9:53 AM,48.0,21.0,34,30.31,10.0,Variable,3.5,-,N/A,,Clear,0,2013-05-11 15:53:00
10:53 AM,48.0,27.0,44,30.31,10.0,SSE,9.2,-,N/A,,Partly Cloudy,150,2013-05-11 16:53:00
11:53 AM,50.0,27.0,41,30.30,10.0,SSE,10.4,17.3,N/A,,Overcast,160,2013-05-11 17:53:00
12:53 PM,53.1,27.0,37,30.27,10.0,Variable,6.9,-,N/A,,Mostly Cloudy,0,2013-05-11 18:53:00
1:53 PM,53.1,27.0,37,30.26,10.0,SSE,9.2,16.1,N/A,,Scattered Clouds,160,2013-05-11 19:53:00
2:53 PM,52.0,27.0,38,30.25,10.0,East,12.7,-,N/A,,Overcast,90,2013-05-11 20:53:00
3:53 PM,52.0,26.1,37,30.25,10.0,ESE,9.2,16.1,N/A,,Mostly Cloudy,120,2013-05-11 21:53:00
4:53 PM,53.1,26.1,35,30.21,10.0,ESE,10.4,-,N/A,,Overcast,120,2013-05-11 22:53:00
5:53 PM,53.1,27.0,37,30.20,10.0,East,10.4,-,N/A,,Mostly Cloudy,90,2013-05-11 23:53:00
6:53 PM,50.0,28.0,43,30.20,10.0,East,8.1,-,N/A,,Mostly Cloudy,90,2013-05-12 00:53:00
7:53 PM,46.9,27.0,46,30.20,10.0,ESE,3.5,-,N/A,,Clear,110,2013-05-12 01:53:00
8:53 PM,43.0,27.0,53,30.18,10.0,Calm,Calm,-,N/A,,Partly Cloudy,0,2013-05-12 02:53:00
9:53 PM,39.9,27.0,60,30.20,10.0,Calm,Calm,-,N/A,,Clear,0,2013-05-12 03:53:00
10:53 PM,37.0,28.0,70,30.20,10.0,Calm,Calm,-,N/A,,Clear,0,2013-05-12 04:53:00
11:53 PM,34.0,27.0,75,30.21,10.0,Calm,Calm,-,N/A,,Scattered Clouds,0,2013-05-12 05:53:00